Weather History for KLCK - November, 2012

Change the Weather History Date:

Friday, November 23, 2012

  Actual Average Record
Temperature  
Mean Temperature 44 °F -  
Max Temperature 55 °F 49 °F 73 °F (1999)
Min Temperature 33 °F 32 °F 14 °F (2008)
Degree Days  
Heating Degree Days 21    
Moisture  
Dew Point 30 °F    
Average Humidity 55    
Maximum Humidity 78    
Minimum Humidity 43    
Precipitation  
Precipitation 0.00 in - - ()
Sea Level Pressure  
Sea Level Pressure 30.00 in    
Wind  
Wind Speed 15 mph (WSW)    
Max Wind Speed 29 mph    
Max Gust Speed 39 mph    
Visibility 10 miles    
Events Rain    
Averages and records for this station are not official NWS values.
T = Trace of Precipitation, MM = Missing Value Source: NWS Daily Summary

Daily Weather History Graph

Daily Weather History Graph

Search for Another Location

Airport or City:

Trip Planner

Search our weather history database for the weather conditions in past years. The results will help you decide how hot, cold, wet, or windy it might be!

Date:

Astronomy

Nov. 23, 2012 Rise Set
Actual Time 7:25 AM EST 5:10 PM EST
Civil Twilight 6:56 AM EST 5:39 PM EST
Nautical Twilight 6:23 AM EST 6:12 PM EST
Astronomical Twilight 5:51 AM EST 6:45 PM EST
Moon 2:24 PM EST (11/23) 2:44 AM EST (11/23)
Length of Visible Light 10h 43m
Length of Day
9h 44m
Waxing Gibbous, 79% of the Moon is Illuminated
Nov 23
Waxing Gibbous
Nov 28
Full
Dec 6
Last Quarter
Dec 13
New
Dec 20
First Quarter

Hourly Weather History & Observations

Time (EST) Temp. Windchill Dew Point Humidity Pressure Visibility Wind Dir Wind Speed Gust Speed Precip Events Conditions
12:15 AM 48.4 °F - 36.1 °F 63% 30.00 in 10.0 mi SSW 9.2 mph - N/A   Clear
12:35 AM 49.3 °F - 37.0 °F 63% 30.00 in 10.0 mi South 8.1 mph - N/A   Clear
12:55 AM 49.8 °F - 37.4 °F 62% 29.99 in 10.0 mi SSW 10.4 mph - N/A   Clear
1:15 AM 50.4 °F - 38.3 °F 63% 29.98 in 10.0 mi SSW 11.5 mph - N/A   Clear
1:35 AM 51.6 °F - 38.8 °F 62% 29.97 in 10.0 mi South 11.5 mph - N/A   Clear
1:55 AM 52.9 °F - 38.8 °F 59% 29.96 in 10.0 mi South 12.7 mph - N/A   Clear
2:15 AM 53.1 °F - 38.5 °F 58% 29.95 in 10.0 mi South 15.0 mph - N/A   Clear
2:35 AM 53.2 °F - 38.3 °F 57% 29.95 in 10.0 mi SSW 15.0 mph - N/A   Clear
2:55 AM 53.2 °F - 38.5 °F 57% 29.95 in 10.0 mi SSW 12.7 mph - N/A   Mostly Cloudy
3:15 AM 53.6 °F - 38.5 °F 57% 29.95 in 10.0 mi SSW 15.0 mph - N/A   Overcast
3:35 AM 54.5 °F - 38.5 °F 55% 29.94 in 10.0 mi SSW 11.5 mph - N/A   Overcast
3:55 AM 54.9 °F - 38.8 °F 55% 29.93 in 10.0 mi SSW 12.7 mph - N/A   Overcast
4:15 AM 54.9 °F - 39.0 °F 55% 29.92 in 10.0 mi SSW 12.7 mph - N/A   Overcast
4:35 AM 55.0 °F - 39.2 °F 55% 29.92 in 10.0 mi SSW 11.5 mph - N/A   Overcast
4:55 AM 55.4 °F - 38.8 °F 54% 29.92 in 10.0 mi SW 13.8 mph - N/A   Overcast
5:15 AM 55.6 °F - 38.8 °F 53% 29.91 in 10.0 mi SW 13.8 mph - N/A   Overcast
5:35 AM 55.9 °F - 39.2 °F 53% 29.90 in 10.0 mi SSW 12.7 mph 20.7 mph N/A   Overcast
5:55 AM 55.8 °F - 39.4 °F 54% 29.90 in 10.0 mi SSW 15.0 mph - N/A   Overcast
6:15 AM 55.9 °F - 39.4 °F 54% 29.90 in 10.0 mi SW 12.7 mph - N/A   Overcast
6:35 AM 55.9 °F - 39.7 °F 55% 29.89 in 10.0 mi SSW 11.5 mph - N/A   Overcast
6:55 AM 55.2 °F - 41.2 °F 59% 29.90 in 10.0 mi SW 10.4 mph - N/A Rain Light Rain
7:15 AM 53.6 °F - 43.2 °F 68% 29.90 in 10.0 mi SW 11.5 mph - N/A   Light Drizzle
7:35 AM 52.9 °F - 43.3 °F 70% 29.91 in 10.0 mi SW 11.5 mph - N/A   Overcast
7:55 AM 52.9 °F - 44.2 °F 72% 29.90 in 3.0 mi WSW 13.8 mph 21.9 mph N/A   Heavy Drizzle
8:15 AM 52.7 °F - 45.3 °F 76% 29.91 in 10.0 mi West 8.1 mph - N/A   Overcast
8:35 AM 52.7 °F - 45.3 °F 76% 29.92 in 10.0 mi West 10.4 mph - N/A   Overcast
8:55 AM 52.5 °F - 45.9 °F 78% 29.92 in 10.0 mi West 8.1 mph - N/A   Overcast
9:15 AM 52.3 °F - 43.0 °F 70% 29.92 in 10.0 mi West 17.3 mph 26.5 mph N/A   Overcast
9:35 AM 51.1 °F - 34.9 °F 54% 29.93 in 10.0 mi West 15.0 mph 19.6 mph N/A   Overcast
9:55 AM 49.6 °F - 35.1 °F 57% 29.93 in 10.0 mi WNW 12.7 mph - N/A   Overcast
10:15 AM 49.3 °F - 37.0 °F 63% 29.93 in 10.0 mi West 13.8 mph 18.4 mph N/A   Overcast
10:35 AM 48.9 °F - 37.8 °F 65% 29.95 in 10.0 mi WNW 11.5 mph - N/A   Overcast
10:55 AM 47.7 °F - 34.5 °F 60% 29.95 in 10.0 mi West 20.7 mph 27.6 mph N/A   Mostly Cloudy
11:15 AM 48.6 °F - 34.0 °F 57% 29.95 in 10.0 mi West 16.1 mph 25.3 mph N/A   Clear
11:35 AM 49.6 °F - 33.6 °F 54% 29.95 in 10.0 mi West 20.7 mph 26.5 mph N/A   Scattered Clouds
11:55 AM 49.6 °F - 31.6 °F 50% 29.94 in 10.0 mi West 25.3 mph 29.9 mph N/A   Clear
12:15 PM 49.5 °F - 29.7 °F 47% 29.94 in 10.0 mi West 18.4 mph 26.5 mph N/A   Clear
12:35 PM 49.5 °F - 29.7 °F 47% 29.94 in 10.0 mi West 24.2 mph 32.2 mph N/A   Clear
12:55 PM 48.9 °F - 29.1 °F 46% 29.94 in 10.0 mi West 25.3 mph 32.2 mph N/A   Scattered Clouds
1:15 PM 49.1 °F - 28.4 °F 45% 29.94 in 10.0 mi West 25.3 mph 34.5 mph N/A   Mostly Cloudy
1:35 PM 48.0 °F - 27.1 °F 44% 29.93 in 10.0 mi West 23.0 mph 38.0 mph N/A   Scattered Clouds
1:55 PM 47.7 °F - 25.9 °F 43% 29.94 in 10.0 mi West 27.6 mph 35.7 mph N/A   Scattered Clouds
2:15 PM 46.6 °F - 26.1 °F 45% 29.94 in 10.0 mi West 26.5 mph 33.4 mph N/A   Mostly Cloudy
2:35 PM 46.0 °F 37.4 °F 25.7 °F 45% 29.95 in 10.0 mi West 25.3 mph 39.1 mph N/A   Overcast
2:55 PM 44.6 °F 35.9 °F 25.7 °F 48% 29.96 in 10.0 mi West 23.0 mph 29.9 mph N/A   Overcast
3:15 PM 43.7 °F 34.7 °F 25.7 °F 49% 29.98 in 10.0 mi WNW 23.0 mph 29.9 mph N/A   Overcast
3:35 PM 42.8 °F 33.5 °F 25.0 °F 49% 29.99 in 10.0 mi West 23.0 mph 28.8 mph N/A   Overcast
3:55 PM 41.7 °F 33.1 °F 23.9 °F 49% 30.01 in 10.0 mi West 18.4 mph 28.8 mph N/A   Overcast
4:15 PM 41.4 °F 30.5 °F 23.0 °F 48% 30.02 in 10.0 mi West 28.8 mph 34.5 mph N/A   Overcast
4:35 PM 40.6 °F 30.2 °F 22.3 °F 48% 30.03 in 10.0 mi West 25.3 mph 31.1 mph N/A   Overcast
4:55 PM 40.1 °F 29.2 °F 22.8 °F 50% 30.04 in 10.0 mi West 26.5 mph 35.7 mph N/A   Overcast
5:15 PM 38.8 °F 28.0 °F 22.6 °F 52% 30.05 in 10.0 mi WNW 24.2 mph 31.1 mph N/A   Overcast
5:35 PM 37.2 °F 25.4 °F 21.7 °F 54% 30.07 in 10.0 mi WNW 26.5 mph 33.4 mph N/A   Overcast
5:55 PM 36.0 °F 23.9 °F 20.3 °F 53% 30.08 in 10.0 mi WNW 25.3 mph 31.1 mph N/A   Overcast
6:15 PM 35.4 °F 23.5 °F 19.8 °F 53% 30.10 in 10.0 mi NW 24.2 mph 32.2 mph N/A   Overcast
6:35 PM 34.7 °F 24.0 °F 18.7 °F 52% 30.11 in 10.0 mi WNW 18.4 mph 28.8 mph N/A   Overcast
6:55 PM 34.3 °F 23.2 °F 18.5 °F 52% 30.11 in 10.0 mi WNW 19.6 mph 24.2 mph N/A   Overcast
7:15 PM 34.2 °F 23.6 °F 18.7 °F 53% 30.13 in 10.0 mi NW 17.3 mph 20.7 mph N/A   Overcast
7:35 PM 34.0 °F 24.2 °F 18.3 °F 53% 30.13 in 10.0 mi WNW 15.0 mph 19.6 mph N/A   Overcast
7:55 PM 33.8 °F 23.9 °F 18.1 °F 53% 30.14 in 10.0 mi WNW 15.0 mph 25.3 mph N/A   Overcast
8:15 PM 33.8 °F 23.9 °F 17.4 °F 51% 30.14 in 10.0 mi WNW 15.0 mph 19.6 mph N/A   Overcast
8:35 PM 33.4 °F 23.9 °F 16.2 °F 49% 30.14 in 10.0 mi West 13.8 mph - N/A   Overcast
8:55 PM 33.3 °F 23.2 °F 16.5 °F 50% 30.14 in 10.0 mi West 15.0 mph - N/A   Overcast
9:15 PM 33.3 °F 24.1 °F 16.3 °F 50% 30.14 in 10.0 mi West 12.7 mph 18.4 mph N/A   Overcast
9:35 PM 33.3 °F 24.1 °F 16.3 °F 50% 30.14 in 10.0 mi West 12.7 mph - N/A   Overcast
9:55 PM 33.3 °F 23.7 °F 17.1 °F 51% 30.14 in 10.0 mi West 13.8 mph - N/A   Overcast
10:15 PM 33.3 °F 23.2 °F 16.7 °F 51% 30.14 in 10.0 mi West 15.0 mph - N/A   Overcast
10:35 PM 33.4 °F 24.8 °F 16.7 °F 50% 30.14 in 10.0 mi West 11.5 mph - N/A   Overcast
10:55 PM 33.6 °F 23.7 °F 16.7 °F 50% 30.14 in 10.0 mi West 15.0 mph 19.6 mph N/A   Overcast
11:15 PM 33.6 °F 23.7 °F 17.2 °F 51% 30.13 in 10.0 mi West 15.0 mph - N/A   Overcast
11:35 PM 33.4 °F 22.7 °F 17.6 °F 52% 30.12 in 10.0 mi West 17.3 mph 21.9 mph N/A   Overcast
11:55 PM 33.3 °F 23.7 °F 18.1 °F 54% 30.11 in 10.0 mi West 13.8 mph 19.6 mph N/A   Overcast